Location: Burgwalden
(48.2830°N, 10.7576°E)
Time: 01:36:56
(UTC+00:00)

Meteor 1-5 Rocket - Pass Details

Date: 26 September 2023
Orbit: 788 x 915 km, 81.2° (Epoch: 04 December)

Event Time Altitude Azimuth Distance (km) Brightness Sun altitude
Rises 02:50:04 0° 348° (NNW) 3,488 7.6 -23.1°
Reaches altitude 10° 02:52:33 10° 349° (N) 2,527 6.8 -22.7°
Maximum altitude 02:58:19 84° 79° (E) 858 4.2 -21.9°
Drops below altitude 10° 03:03:49 10° 168° (SSE) 2,422 6.5 -21.0°
Sets 03:06:10 0° 169° (SSE) 3,334 7.2 -20.7°
